�������l�o���
Date,Time,MP-1(��Sv/h),MP-2(��Sv/h),MP-3(��Sv/h),MP-4(��Sv/h),MP-5(��Sv/h),MP-6(��Sv/h),MP-7(��Sv/h),MP-8(��Sv/h),����,����(m/s),���J
2020/10/28,00:00,0.655,0.941,0.597,1.153,0.833,0.380,0.665,0.627,�쐼,1.2,��
2020/10/28,00:10,0.655,0.942,0.597,1.153,0.833,0.381,0.666,0.630,�쐼,1.2,��
2020/10/28,00:20,0.655,0.943,0.600,1.154,0.833,0.382,0.666,0.630,�쐼,1.4,��
2020/10/28,00:30,0.656,0.942,0.596,1.154,0.834,0.382,0.666,0.628,�쐼,1.7,��
2020/10/28,00:40,0.656,0.942,0.599,1.155,0.832,0.382,0.665,0.628,�쐼,1.7,��
2020/10/28,00:50,0.657,0.943,0.595,1.154,0.834,0.381,0.666,0.629,�쐼,1.7,��
2020/10/28,01:00,0.654,0.942,0.597,1.154,0.835,0.383,0.667,0.628,�쐼,2.0,��
2020/10/28,01:10,0.656,0.946,0.599,1.153,0.832,0.383,0.666,0.628,�쐼,2.2,��
2020/10/28,01:20,0.654,0.943,0.596,1.153,0.835,0.381,0.666,0.628,�쐼,1.5,��
2020/10/28,01:30,0.655,0.944,0.598,1.154,0.833,0.382,0.666,0.628,�쐼,1.5,��
2020/10/28,01:40,0.656,0.942,0.596,1.155,0.832,0.381,0.666,0.629,�쐼,1.9,��
2020/10/28,01:50,0.655,0.942,0.597,1.153,0.833,0.382,0.665,0.628,�쐼,1.5,��
2020/10/28,02:00,0.656,0.942,0.596,1.153,0.834,0.383,0.666,0.628,�쐼,1.7,��
2020/10/28,02:10,0.656,0.940,0.597,1.151,0.832,0.383,0.666,0.629,�쐼,1.5,��
2020/10/28,02:20,0.655,0.942,0.596,1.153,0.832,0.382,0.665,0.630,��쐼,1.2,��
2020/10/28,02:30,0.655,0.942,0.597,1.153,0.831,0.382,0.666,0.628,�쐼,1.5,��
2020/10/28,02:40,0.655,0.941,0.596,1.154,0.831,0.381,0.667,0.629,���쐼,2.3,��
2020/10/28,02:50,0.655,0.941,0.598,1.154,0.831,0.382,0.665,0.627,�쐼,2.6,��
2020/10/28,03:00,0.654,0.945,0.599,1.155,0.832,0.382,0.666,0.626,�쐼,2.5,��
2020/10/28,03:10,0.654,0.940,0.598,1.155,0.833,0.383,0.666,0.627,�쐼,2.3,��
2020/10/28,03:20,0.654,0.941,0.597,1.152,0.832,0.381,0.665,0.627,���쐼,2.6,��
2020/10/28,03:30,0.656,0.942,0.598,1.154,0.832,0.382,0.666,0.629,���쐼,2.2,��
2020/10/28,03:40,0.654,0.942,0.597,1.154,0.833,0.381,0.665,0.627,���쐼,1.7,��
2020/10/28,03:50,0.655,0.943,0.598,1.154,0.834,0.382,0.666,0.628,���k��,1.9,��
2020/10/28,04:00,0.654,0.939,0.597,1.156,0.833,0.380,0.665,0.629,�k��,2.8,��
2020/10/28,04:10,0.654,0.944,0.596,1.154,0.831,0.382,0.665,0.628,�k��,5.0,��
2020/10/28,04:20,0.654,0.940,0.598,1.155,0.832,0.381,0.665,0.629,�k�k��,5.3,��
2020/10/28,04:30,0.653,0.942,0.596,1.154,0.833,0.381,0.665,0.628,�k�k��,4.6,��
2020/10/28,04:40,0.654,0.942,0.597,1.156,0.830,0.381,0.665,0.629,�k�k��,4.5,��
2020/10/28,04:50,0.653,0.939,0.598,1.155,0.833,0.382,0.665,0.629,�k�k��,4.9,��
2020/10/28,05:00,0.654,0.941,0.597,1.153,0.831,0.382,0.665,0.629,�k�k��,4.6,��
2020/10/28,05:10,0.653,0.941,0.595,1.153,0.832,0.381,0.666,0.628,�k�k��,4.6,��
2020/10/28,05:20,0.655,0.941,0.597,1.155,0.836,0.382,0.667,0.631,�k�k��,4.9,��
2020/10/28,05:30,0.656,0.941,0.597,1.153,0.834,0.383,0.665,0.629,�k�k��,4.4,��
2020/10/28,05:40,0.652,0.941,0.597,1.152,0.832,0.381,0.666,0.629,�k�k��,4.8,��
2020/10/28,05:50,0.654,0.942,0.597,1.156,0.832,0.383,0.666,0.629,�k�k��,4.9,��
2020/10/28,06:00,0.655,0.940,0.596,1.156,0.834,0.381,0.667,0.628,�k�k��,4.3,��
2020/10/28,06:10,0.654,0.941,0.596,1.155,0.834,0.382,0.665,0.629,�k�k��,4.7,��
2020/10/28,06:20,0.654,0.942,0.597,1.152,0.831,0.381,0.665,0.628,�k�k��,4.8,��
2020/10/28,06:30,0.653,0.942,0.598,1.157,0.833,0.381,0.667,0.628,�k�k��,4.3,��
2020/10/28,06:40,0.653,0.940,0.596,1.154,0.832,0.381,0.665,0.629,�k�k��,5.3,��
2020/10/28,06:50,0.653,0.941,0.595,1.156,0.832,0.382,0.667,0.628,�k�k��,4.3,��
2020/10/28,07:00,0.655,0.942,0.598,1.154,0.832,0.381,0.667,0.627,�k��,4.0,��
2020/10/28,07:10,0.654,0.940,0.598,1.156,0.832,0.381,0.667,0.628,�k�k��,3.8,��
2020/10/28,07:20,0.654,0.944,0.596,1.157,0.833,0.382,0.666,0.628,�k�k��,4.7,��
2020/10/28,07:30,0.654,0.941,0.596,1.157,0.831,0.383,0.667,0.630,�k�k��,5.0,��
2020/10/28,07:40,0.655,0.943,0.597,1.155,0.831,0.380,0.668,0.629,�k�k��,5.3,��
2020/10/28,07:50,0.654,0.941,0.599,1.156,0.833,0.382,0.666,0.630,�k�k��,5.3,��
2020/10/28,08:00,0.655,0.942,0.595,1.156,0.831,0.381,0.667,0.631,�k�k��,4.8,��
2020/10/28,08:10,0.657,0.942,0.597,1.155,0.833,0.382,0.669,0.631,�k�k��,4.1,��
2020/10/28,08:20,0.656,0.942,0.598,1.156,0.832,0.381,0.666,0.630,�k�k��,4.3,��
2020/10/28,08:30,0.655,0.941,0.598,1.155,0.832,0.381,0.665,0.629,�k�k��,4.1,��
2020/10/28,08:40,0.658,0.941,0.597,1.156,0.833,0.380,0.665,0.628,�k�k��,3.8,��
2020/10/28,08:50,0.659,0.941,0.598,1.155,0.832,0.381,0.666,0.630,�k�k��,3.4,��
2020/10/28,09:00,0.658,0.940,0.599,1.155,0.834,0.381,0.666,0.630,�k,2.8,��
2020/10/28,09:10,0.656,0.939,0.597,1.156,0.831,0.383,0.666,0.630,�k�k��,2.5,��
2020/10/28,09:20,0.655,0.938,0.597,1.154,0.832,0.382,0.666,0.630,�k�k��,2.2,��
2020/10/28,09:30,0.655,0.939,0.599,1.155,0.833,0.382,0.665,0.631,�k�k��,1.9,��
2020/10/28,09:40,0.654,0.939,0.597,1.154,0.831,0.384,0.666,0.631,�k�k��,2.5,��
2020/10/28,09:50,0.654,0.939,0.598,1.154,0.829,0.382,0.666,0.631,�k�k��,2.0,��
2020/10/28,10:00,0.657,0.940,0.598,1.157,-,0.383,0.667,0.631,�k�k��,2.2,��
2020/10/28,10:10,0.657,0.939,0.599,1.158,-,0.382,0.667,0.629,���k��,3.0,��
2020/10/28,10:20,0.656,0.939,0.597,1.155,-,0.382,0.667,0.630,�k��,2.6,��
2020/10/28,10:30,0.656,0.940,0.595,1.155,-,0.380,0.666,0.631,�k��,2.9,��
2020/10/28,10:40,0.657,0.941,0.596,1.157,-,0.379,0.666,0.628,���k��,3.1,��
2020/10/28,10:50,0.657,0.942,0.597,1.160,-,0.380,0.668,0.629,�k��,3.2,��
2020/10/28,11:00,0.656,0.942,0.596,1.155,-,0.380,0.668,0.630,�k��,3.3,��
2020/10/28,11:10,0.657,0.943,0.597,1.158,-,0.380,0.666,0.630,���k��,3.1,��
2020/10/28,11:20,0.658,0.941,0.598,1.156,-,0.381,0.667,0.628,���k��,2.9,��
2020/10/28,11:30,0.657,0.942,0.597,1.156,-,0.379,0.665,0.629,���k��,3.4,��
2020/10/28,11:40,0.656,0.944,0.597,1.157,-,0.380,0.666,0.629,���k��,3.5,��
2020/10/28,11:50,0.657,0.945,0.597,1.155,-,0.381,0.666,0.630,���k��,3.6,��
2020/10/28,12:00,0.657,0.944,0.598,1.157,-,0.383,0.667,0.630,���k��,3.7,��
2020/10/28,12:10,0.658,0.944,0.598,1.155,-,0.381,0.666,0.629,���k��,3.8,��
2020/10/28,12:20,0.657,0.943,0.598,1.157,-,0.382,0.667,0.628,���k��,3.7,��
2020/10/28,12:30,0.658,0.947,0.597,1.155,-,0.381,0.667,0.628,��,3.3,��
2020/10/28,12:40,0.658,0.947,0.597,1.157,-,0.383,0.666,0.626,��,2.9,��
2020/10/28,12:50,0.656,0.943,0.598,1.158,-,0.381,0.666,0.626,���쓌,2.3,��
2020/10/28,13:00,0.656,0.943,0.597,1.158,-,0.383,0.667,0.628,���쓌,3.0,��
2020/10/28,13:10,0.658,0.941,0.596,1.156,-,0.383,0.667,0.628,���쓌,2.3,��
2020/10/28,13:20,0.659,0.940,0.598,1.156,-,0.383,0.666,0.628,���쓌,2.3,��
2020/10/28,13:30,0.658,0.940,0.597,1.159,-,0.382,0.666,0.628,���쓌,2.2,��
2020/10/28,13:40,0.656,0.943,0.597,1.158,-,0.382,0.666,0.626,���쓌,2.5,��
2020/10/28,13:50,0.657,0.943,0.598,1.156,-,0.382,0.666,0.628,�쓌,2.2,��
2020/10/28,14:00,0.659,0.943,0.598,1.159,-,0.383,0.667,0.628,�쓌,2.2,��
2020/10/28,14:10,0.655,0.941,0.600,1.160,-,0.382,0.667,0.627,�쓌,2.9,��
2020/10/28,14:20,0.657,0.943,0.599,1.157,0.834,0.381,0.666,0.628,���쓌,2.8,��
2020/10/28,14:30,0.657,0.943,0.597,1.158,0.834,0.383,0.664,0.627,���쓌,3.2,��
2020/10/28,14:40,0.656,0.943,0.597,1.159,0.834,0.384,0.665,0.628,�쓌,1.9,��
2020/10/28,14:50,0.658,0.942,0.598,1.158,0.837,0.383,0.667,0.627,�쓌,2.5,��
2020/10/28,15:00,0.657,0.945,0.598,1.159,0.834,0.382,0.665,0.628,�쓌,2.9,��
2020/10/28,15:10,0.658,0.945,0.596,1.156,0.837,0.384,0.667,0.628,��쓌,2.8,��
2020/10/28,15:20,0.659,0.944,0.600,1.158,0.834,0.382,0.666,0.628,��쓌,3.9,��
2020/10/28,15:30,0.656,0.945,0.597,1.159,0.835,0.383,0.666,0.628,��쓌,3.8,��
2020/10/28,15:40,0.657,0.947,0.598,1.161,0.835,0.382,0.668,0.628,��쓌,3.1,��
2020/10/28,15:50,0.657,0.948,0.600,1.157,0.834,0.382,0.665,0.629,��쓌,3.6,��
2020/10/28,16:00,0.658,0.949,0.598,1.159,0.836,0.381,0.667,0.628,��쓌,4.2,��
2020/10/28,16:10,0.657,0.949,0.599,1.160,0.835,0.382,0.666,0.629,��쓌,4.6,��
2020/10/28,16:20,0.659,0.950,0.601,1.157,0.835,0.382,0.666,0.628,��쓌,4.5,��
2020/10/28,16:30,0.658,0.951,0.601,1.159,0.836,0.380,0.666,0.629,��쓌,3.3,��
2020/10/28,16:40,0.660,0.950,0.600,1.159,0.834,0.382,0.666,0.629,��쓌,4.6,��
2020/10/28,16:50,0.658,0.950,0.601,1.158,0.836,0.382,0.666,0.631,��쓌,4.1,��
2020/10/28,17:00,0.660,0.952,0.600,1.155,0.835,0.384,0.667,0.631,��쓌,4.4,��
2020/10/28,17:10,0.659,0.951,0.600,1.157,0.839,0.383,0.667,0.630,��,4.3,��
2020/10/28,17:20,0.660,0.950,0.600,1.157,0.837,0.383,0.668,0.631,��,4.8,��
2020/10/28,17:30,0.661,0.952,0.601,1.157,0.840,0.383,0.669,0.632,��,4.6,��
2020/10/28,17:40,0.661,0.953,0.601,1.158,0.840,0.383,0.667,0.632,��,5.3,��
2020/10/28,17:50,0.661,0.953,0.602,1.159,0.839,0.383,0.668,0.629,��,5.0,��
2020/10/28,18:00,0.662,0.953,0.601,1.159,0.838,0.383,0.668,0.632,��,4.8,��
2020/10/28,18:10,0.660,0.950,0.600,1.159,0.837,0.383,0.667,0.630,��,5.8,��
2020/10/28,18:20,0.661,0.952,0.600,1.157,0.839,0.383,0.665,0.630,��쐼,5.8,��
2020/10/28,18:30,0.659,0.950,0.600,1.160,0.838,0.383,0.669,0.631,��쐼,5.9,��
2020/10/28,18:40,0.660,0.951,0.600,1.159,0.838,0.384,0.669,0.631,��쐼,5.8,��
2020/10/28,18:50,0.661,0.952,0.599,1.158,0.839,0.384,0.667,0.629,��쐼,5.7,��
2020/10/28,19:00,0.660,0.950,0.599,1.159,0.839,0.383,0.668,0.632,��쐼,5.7,��
2020/10/28,19:10,0.660,0.950,0.600,1.158,0.840,0.384,0.669,0.631,��쐼,5.3,��
2020/10/28,19:20,0.663,0.952,0.600,1.158,0.840,0.384,0.668,0.630,��,4.1,��
2020/10/28,19:30,0.659,0.950,0.600,1.158,0.838,0.383,0.668,0.632,��,3.3,��
2020/10/28,19:40,0.659,0.953,0.599,1.157,0.839,0.384,0.668,0.632,��쐼,2.6,��
2020/10/28,19:50,0.660,0.952,0.600,1.158,0.841,0.383,0.666,0.630,��쐼,2.5,��
2020/10/28,20:00,0.661,0.951,0.599,1.160,0.839,0.384,0.669,0.631,��,3.4,��
2020/10/28,20:10,0.660,0.951,0.602,1.159,0.838,0.384,0.668,0.630,��,4.1,��
2020/10/28,20:20,0.660,0.951,0.600,1.158,0.837,0.383,0.668,0.632,��쓌,3.7,��
2020/10/28,20:30,0.662,0.951,0.600,1.158,0.836,0.384,0.669,0.629,��,4.0,��
2020/10/28,20:40,0.661,0.951,0.598,1.159,0.838,0.383,0.667,0.630,��,4.3,��
2020/10/28,20:50,0.660,0.950,0.600,1.158,0.838,0.384,0.668,0.631,��쓌,4.7,��
2020/10/28,21:00,0.662,0.949,0.601,1.159,0.839,0.384,0.668,0.631,��,4.5,��
2020/10/28,21:10,0.659,0.950,0.599,1.158,0.836,0.383,0.667,0.630,��,5.0,��
2020/10/28,21:20,0.659,0.950,0.599,1.158,0.838,0.383,0.669,0.630,��,4.7,��
2020/10/28,21:30,0.660,0.950,0.598,1.158,0.836,0.384,0.668,0.629,��쓌,4.2,��
2020/10/28,21:40,0.660,0.948,0.599,1.159,0.840,0.384,0.667,0.631,��,3.8,��
2020/10/28,21:50,0.661,0.949,0.599,1.159,0.838,0.384,0.666,0.631,��,3.5,��
2020/10/28,22:00,0.661,0.949,0.600,1.156,0.837,0.383,0.668,0.631,��쐼,2.3,��
2020/10/28,22:10,0.660,0.948,0.600,1.158,0.839,0.383,0.667,0.632,�쐼,2.2,��
2020/10/28,22:20,0.660,0.949,0.600,1.157,0.837,0.383,0.667,0.630,��쐼,2.3,��
2020/10/28,22:30,0.662,0.948,0.598,1.156,0.837,0.384,0.667,0.630,��쐼,2.6,��
2020/10/28,22:40,0.660,0.948,0.600,1.161,0.837,0.384,0.667,0.632,��,2.8,��
2020/10/28,22:50,0.660,0.949,0.599,1.159,0.837,0.384,0.668,0.630,��,1.5,��
2020/10/28,23:00,0.660,0.947,0.600,1.160,0.837,0.383,0.667,0.631,�쓌,1.5,��
2020/10/28,23:10,0.662,0.948,0.599,1.156,0.837,0.384,0.668,0.629,��쓌,1.7,��
2020/10/28,23:20,0.659,0.949,0.602,1.157,0.838,0.382,0.669,0.631,��쓌,1.2,��
2020/10/28,23:30,0.660,0.947,0.601,1.159,0.838,0.384,0.668,0.630,��,0.8,��
2020/10/28,23:40,0.662,0.950,0.600,1.158,0.836,0.384,0.667,0.629,��쓌,1.4,��
2020/10/28,23:50,0.660,0.948,0.600,1.155,0.838,0.384,0.667,0.630,-,CALM,��
